COSMOS 1394

Satellite information

Favourite Embed

Satellite Type and Status

PAYLOADIN ORBIT

Key statistics

Satellite COSMOS 1394 at a glance.

Uptime

15813

Days in orbit

Revolutions

≈ 12.5

Per day

Orbit

LEO

Low Earth Orbit

Inclination

74.0

Latest

Satellite identification and parameters

Extended collection of information and parameters for COSMOS 1394.

Object identification

Identified? True

Debris? False

Object name: COSMOS 1394

International designator: 1982-073G

Object number (NORAD): 13381

Object ID (CCSDS): 13381

Country: COMMONWEALTH OF INDEPENDENT STATES (CIS)

Current information (Y/N): Y

RCS size: MEDIUM

Orbital parameters

Period: 115.645 minutes

Inclination: 74.0135 deg

SMA: 7862.823 km

Apoapsis: 1495.01 km

Periapsis: 1474.365 km

RAAN: 85.0121 deg

Eccentricy: 0.0013128

Argument of periapsis: 137.8879 deg

Mean anomaly: 30.4384 deg

Mean motion: 12.45188301 rev/day

Mean motion (dot): -0.00000031 rev/day2

B* drag term: -0.0001053 1/REarth

Two-line elements (TLE)

Creation date: Nov. 4, 2025, 11:56 p.m.

Reference frame: TEME

Reference center: EARTH

Epoch: Nov. 4, 2025, 7:58 p.m. UTC

TLE line 0: 0 COSMOS 1394

TLE line 1: 1 13381U 82073G 25308.83197358 -.00000031 00000-0 -10530-3 0 9996

TLE line 2: 2 13381 74.0135 85.0121 0013128 137.8879 30.4384 12.45188301967909

Live tracking on map

Real-time ground track for satellite COSMOS 1394.

In-orbit conjunctions

A list of the most updated potential collisions computed for object COSMOS 1394.

Target Orbit TCA Probability of collision Miss distance Type
DELTA 1 DEB SSO 2024-09-06 23:04:05 0.0003947227 100.0 (m) DEBRIS

Associated space launch

Military communications satellites

COSMOS 1394 was lifted into orbit during the mission ‘Kosmos-3M | Strela-1M 241-248’, on board a Kosmos-3M space rocket.

The launch took place on July 21, 1982, 6:31 a.m. from 132/2.

For more information about the launch, click the button.

Launch to space Kosmos-3M | Strela-1M 241-248
Kosmos-3M | Strela-1M 241-248

Agency: N/A

Status: Launch Successful

Launch date: July 21, 1982, 6:31 a.m. UTC

Rocket: Kosmos-3M

Launch pad: 132/2

Location: Plesetsk Cosmodrome, Russian Federation

...

Latest news about this satellite

There are no fresh news available about this satellite. Check back as we update our databases every day.


Newsletter sign-up

Weekly statistics, charts and insights to help you stay on top of the space industry.